| time (UTC) | temp F | wind direction | speed MPH | gust MPH | rain 1hr in | rain 24hr in | rain mn in | humidity % | barometer mb |
| 20260508055540 | 49 | 81 | 2.0 | 6.0 | 0.00 | 0.06 | 0.06 | 74 | 1014.5 |
| 20260508054540 | 49 | 86 | 2.0 | 6.0 | 0.00 | 0.06 | 0.06 | 75 | 1014.3 |
| 20260508053540 | 49 | 59 | 3.0 | 6.0 | 0.00 | 0.06 | 0.06 | 74 | 1014.3 |
| 20260508052540 | 49 | 93 | 2.0 | 6.0 | 0.00 | 0.06 | 0.06 | 75 | 1014.2 |
| 20260508051540 | 49 | 87 | 2.0 | 6.0 | 0.00 | 0.06 | 0.06 | 74 | 1014.2 |
| 20260508050540 | 49 | 88 | 3.0 | 5.0 | 0.00 | 0.06 | 0.06 | 74 | 1014.3 |
| 20260508045539 | 49 | 67 | 2.0 | 6.0 | 0.00 | 0.06 | 0.06 | 76 | 1014.1 |
| 20260508044540 | 49 | 76 | 2.0 | 6.0 | 0.00 | 0.06 | 0.06 | 76 | 1014.0 |
| 20260508043540 | 49 | 76 | 3.0 | 6.0 | 0.00 | 0.06 | 0.06 | 76 | 1013.9 |
| 20260508042540 | 49 | 92 | 2.0 | 5.0 | 0.00 | 0.06 | 0.06 | 71 | 1014.1 |
| 20260508041540 | 48 | 59 | 2.0 | 3.0 | 0.00 | 0.06 | 0.06 | 73 | 1013.9 |
| 20260508040541 | 48 | 68 | 2.0 | 6.0 | 0.00 | 0.06 | 0.06 | 76 | 1013.8 |
| 20260508035539 | 48 | 65 | 3.0 | 8.0 | 0.00 | 0.06 | 0.06 | 74 | 1013.9 |
| 20260508034539 | 48 | 70 | 3.0 | 8.0 | 0.00 | 0.06 | 0.06 | 75 | 1013.8 |
| 20260508033539 | 48 | 177 | 2.0 | 3.0 | 0.00 | 0.06 | 0.06 | 75 | 1013.7 |
| 20260508032539 | 49 | 197 | 2.0 | 3.0 | 0.00 | 0.06 | 0.06 | 80 | 1013.9 |
| 20260508030540 | 49 | 196 | 1.0 | 3.0 | 0.00 | 0.06 | 0.06 | 76 | 1013.8 |
| 20260508025539 | 49 | 205 | 2.0 | 3.0 | 0.00 | 0.06 | 0.06 | 77 | 1013.7 |
| 20260508024539 | 50 | 161 | 1.0 | 2.0 | 0.00 | 0.06 | 0.06 | 75 | 1013.6 |
| 20260508023539 | 50 | 96 | 2.0 | 2.0 | 0.00 | 0.06 | 0.06 | 72 | 1013.5 |
| 20260508020540 | 49 | 254 | 1.0 | 2.0 | 0.00 | 0.06 | 0.06 | 74 | 1013.5 |
| 20260508015542 | 49 | 236 | 1.0 | 3.0 | 0.00 | 0.06 | 0.06 | 74 | 1013.5 |
| 20260508014542 | 49 | 257 | 1.0 | 3.0 | 0.00 | 0.06 | 0.06 | 74 | 1013.3 |
| 20260508013540 | 49 | 241 | 1.0 | 3.0 | 0.00 | 0.06 | 0.06 | 74 | 1013.4 |
| 20260508012540 | 50 | 224 | 2.0 | 3.0 | 0.00 | 0.06 | 0.06 | 73 | 1013.3 |
| 20260508011539 | 49 | 199 | 1.0 | 2.0 | 0.00 | 0.06 | 0.06 | 74 | 1013.2 |
| 20260508010539 | 50 | 156 | 1.0 | 2.0 | 0.00 | 0.06 | 0.06 | 74 | 1013.4 |
| 20260508004539 | 50 | 192 | 1.0 | 2.0 | 0.00 | 0.06 | 0.06 | 73 | 1013.3 |
| 20260508003540 | 50 | 221 | 1.0 | 2.0 | 0.00 | 0.06 | 0.06 | 73 | 1013.2 |
| 20260508002543 | 50 | 229 | 2.0 | 3.0 | 0.00 | 0.06 | 0.06 | 74 | 1013.3 |
| 20260508000539 | 50 | 277 | 2.0 | 3.0 | 0.00 | 0.06 | 0.06 | 74 | 1013.2 |
| 20260507235541 | 50 | 257 | 2.0 | 3.0 | 0.00 | 0.06 | 0.06 | 74 | 1013.2 |
| 20260507234540 | 50 | 238 | 1.0 | 2.0 | 0.00 | 0.06 | 0.06 | 73 | 1013.2 |
| 20260507233540 | 50 | 266 | 1.0 | 2.0 | 0.00 | 0.06 | 0.06 | 71 | 1013.1 |
| 20260507232539 | 50 | 239 | 1.0 | 5.0 | 0.00 | 0.06 | 0.06 | 71 | 1013.1 |
| 20260507231540 | 50 | 286 | 2.0 | 5.0 | 0.00 | 0.06 | 0.06 | 72 | 1013.1 |
| 20260507230546 | 50 | 257 | 2.0 | 6.0 | 0.00 | 0.06 | 0.06 | 73 | 1013.1 |
| 20260507225541 | 50 | 295 | 3.0 | 6.0 | 0.00 | 0.06 | 0.06 | 73 | 1012.9 |
| 20260507224539 | 50 | 290 | 3.0 | 6.0 | 0.00 | 0.06 | 0.06 | 74 | 1012.9 |
| 20260507223541 | 50 | 300 | 3.0 | 6.0 | 0.00 | 0.06 | 0.06 | 74 | 1012.7 |
| 20260507222542 | 50 | 287 | 3.0 | 5.0 | 0.00 | 0.06 | 0.06 | 71 | 1012.8 |
| 20260507215540 | 50 | 289 | 3.0 | 5.0 | 0.00 | 0.06 | 0.06 | 71 | 1012.9 |
| 20260507214540 | 51 | 285 | 3.0 | 5.0 | 0.00 | 0.06 | 0.06 | 72 | 1012.9 |
| 20260507213539 | 51 | 290 | 4.0 | 6.0 | 0.00 | 0.06 | 0.06 | 71 | 1012.6 |
| 20260507212540 | 51 | 289 | 3.0 | 6.0 | 0.00 | 0.06 | 0.06 | 72 | 1012.6 |
| 20260507211539 | 51 | 289 | 3.0 | 7.0 | 0.00 | 0.06 | 0.06 | 72 | 1012.6 |
| 20260507210539 | 51 | 286 | 4.0 | 6.0 | 0.00 | 0.06 | 0.06 | 72 | 1012.5 |
| 20260507205538 | 51 | 284 | 3.0 | 6.0 | 0.00 | 0.06 | 0.06 | 73 | 1012.4 |
| 20260507203539 | 50 | 256 | 1.0 | 1.0 | 0.00 | 0.06 | 0.06 | 81 | 1012.2 |
| 20260507202540 | 49 | 257 | 1.0 | 3.0 | 0.00 | 0.06 | 0.06 | 81 | 1012.1 |
| 20260507200539 | 50 | 259 | 1.0 | 2.0 | 0.00 | 0.06 | 0.06 | 79 | 1012.0 |
| 20260507194538 | 50 | 282 | 0.0 | 0.0 | 0.00 | 0.06 | 0.06 | 78 | 1011.9 |
| 20260507192538 | 51 | 282 | 0.0 | 0.0 | 0.00 | 0.06 | 0.06 | 76 | 1011.6 |
| 20260507190538 | 51 | 282 | 0.0 | 0.0 | 0.00 | 0.06 | 0.06 | 73 | 1011.5 |
| 20260507185538 | 51 | 282 | 0.0 | 3.0 | 0.00 | 0.06 | 0.06 | 73 | 1011.5 |
| 20260507183538 | 51 | 305 | 1.0 | 3.0 | 0.00 | 0.06 | 0.06 | 74 | 1011.4 |
| 20260507180538 | 51 | 275 | 2.0 | 5.0 | 0.00 | 0.06 | 0.06 | 80 | 1011.4 |
| 20260507174538 | 50 | 284 | 2.0 | 7.0 | 0.00 | 0.06 | 0.06 | 86 | 1011.2 |
| 20260507173538 | 50 | 281 | 5.0 | 8.0 | 0.00 | 0.06 | 0.06 | 85 | 1011.3 |
| 20260507172537 | 51 | 283 | 5.0 | 8.0 | 0.00 | 0.06 | 0.06 | 82 | 1011.3 |
| 20260507171538 | 51 | 276 | 3.0 | 8.0 | 0.00 | 0.06 | 0.06 | 80 | 1011.2 |
| 20260507170540 | 51 | 290 | 3.0 | 6.0 | 0.00 | 0.06 | 0.06 | 79 | 1011.1 |
| 20260507165538 | 51 | 297 | 3.0 | 7.0 | 0.00 | 0.06 | 0.06 | 80 | 1011.1 |
| 20260507164537 | 52 | 293 | 5.0 | 8.0 | 0.00 | 0.06 | 0.06 | 77 | 1011.0 |
| 20260507163539 | 52 | 295 | 6.0 | 9.0 | 0.00 | 0.06 | 0.06 | 78 | 1011.0 |
| 20260507162537 | 54 | 270 | 2.0 | 7.0 | 0.00 | 0.06 | 0.06 | 74 | 1011.1 |
| 20260507161539 | 54 | 248 | 4.0 | 7.0 | 0.00 | 0.06 | 0.06 | 76 | 1010.9 |
| 20260507160537 | 54 | 254 | 3.0 | 7.0 | 0.00 | 0.06 | 0.06 | 79 | 1010.8 |
| 20260507154538 | 54 | 256 | 3.0 | 6.0 | 0.02 | 0.06 | 0.06 | 78 | 1010.7 |
| 20260507153538 | 54 | 254 | 2.0 | 5.0 | 0.02 | 0.06 | 0.06 | 78 | 1010.7 |
| 20260507152537 | 55 | 239 | 3.0 | 7.0 | 0.02 | 0.06 | 0.06 | 74 | 1010.7 |
| 20260507151538 | 54 | 253 | 3.0 | 7.0 | 0.02 | 0.06 | 0.06 | 77 | 1010.8 |
| 20260507144538 | 55 | 251 | 3.0 | 8.0 | 0.02 | 0.06 | 0.06 | 79 | 1010.8 |
| 20260507143538 | 54 | 257 | 4.0 | 8.0 | 0.02 | 0.06 | 0.06 | 81 | 1011.0 |
| 20260507142537 | 55 | 240 | 6.0 | 8.0 | 0.02 | 0.06 | 0.06 | 77 | 1010.9 |
| 20260507140540 | 56 | 242 | 5.0 | 8.0 | 0.02 | 0.06 | 0.06 | 78 | 1010.8 |
| 20260507135538 | 55 | 241 | 5.0 | 7.0 | 0.02 | 0.06 | 0.06 | 81 | 1010.7 |
| 20260507134538 | 55 | 263 | 3.0 | 7.0 | 0.02 | 0.06 | 0.06 | 84 | 1010.7 |
| 20260507133536 | 52 | 250 | 3.0 | 6.0 | 0.02 | 0.06 | 0.06 | 89 | 1010.8 |
| 20260507132537 | 53 | 266 | 3.0 | 9.0 | 0.01 | 0.05 | 0.05 | 84 | 1011.0 |
| 20260507131537 | 54 | 258 | 2.0 | 6.0 | 0.00 | 0.04 | 0.04 | 81 | 1010.7 |
| 20260507130538 | 55 | 253 | 3.0 | 7.0 | 0.00 | 0.04 | 0.04 | 80 | 1010.9 |
| 20260507125536 | 56 | 252 | 5.0 | 7.0 | 0.00 | 0.04 | 0.04 | 78 | 1010.8 |
| 20260507124536 | 53 | 272 | 3.0 | 8.0 | 0.00 | 0.04 | 0.04 | 84 | 1010.9 |
| 20260507123536 | 54 | 220 | 5.0 | 8.0 | 0.00 | 0.04 | 0.04 | 80 | 1010.8 |
| 20260507122535 | 57 | 189 | 5.0 | 8.0 | 0.00 | 0.04 | 0.04 | 71 | 1010.9 |
| 20260507121538 | 57 | 211 | 5.0 | 7.0 | 0.00 | 0.04 | 0.04 | 72 | 1010.8 |
| 20260507120536 | 58 | 239 | 5.0 | 10.0 | 0.00 | 0.04 | 0.04 | 70 | 1010.9 |
| 20260507114537 | 56 | 228 | 5.0 | 10.0 | 0.00 | 0.04 | 0.04 | 70 | 1011.0 |
| 20260507113536 | 58 | 229 | 6.0 | 12.0 | 0.00 | 0.04 | 0.04 | 67 | 1010.8 |
| 20260507112537 | 56 | 220 | 7.0 | 12.0 | 0.00 | 0.04 | 0.04 | 72 | 1010.8 |
| 20260507111537 | 57 | 246 | 6.0 | 13.0 | 0.00 | 0.04 | 0.04 | 69 | 1010.9 |
| 20260507110537 | 56 | 249 | 7.0 | 12.0 | 0.00 | 0.04 | 0.04 | 67 | 1010.8 |
| 20260507105536 | 56 | 244 | 5.0 | 12.0 | 0.00 | 0.04 | 0.04 | 70 | 1011.0 |
| 20260507103536 | 57 | 220 | 6.0 | 10.0 | 0.00 | 0.04 | 0.04 | 70 | 1010.8 |
| 20260507102538 | 58 | 242 | 5.0 | 8.0 | 0.00 | 0.04 | 0.04 | 70 | 1010.9 |
| 20260507101536 | 57 | 240 | 2.0 | 5.0 | 0.00 | 0.04 | 0.04 | 73 | 1010.8 |
| 20260507100537 | 54 | 174 | 2.0 | 5.0 | 0.00 | 0.04 | 0.04 | 81 | 1010.8 |
| 20260507095536 | 54 | 245 | 3.0 | 7.0 | 0.00 | 0.04 | 0.04 | 80 | 1010.9 |
| 20260507094536 | 53 | 231 | 5.0 | 7.0 | 0.00 | 0.04 | 0.04 | 79 | 1010.8 |
| 20260507093537 | 53 | 229 | 5.0 | 9.0 | 0.00 | 0.04 | 0.04 | 76 | 1010.9 |
| 20260507091537 | 53 | 231 | 3.0 | 10.0 | 0.00 | 0.04 | 0.04 | 79 | 1010.7 |
| 20260507090538 | 52 | 222 | 6.0 | 13.0 | 0.00 | 0.04 | 0.04 | 79 | 1010.5 |
| 20260507085536 | 53 | 218 | 7.0 | 13.0 | 0.00 | 0.04 | 0.04 | 78 | 1010.7 |
| 20260507084536 | 54 | 163 | 6.0 | 10.0 | 0.00 | 0.04 | 0.04 | 75 | 1010.5 |
| 20260507083536 | 55 | 224 | 6.0 | 10.0 | 0.00 | 0.04 | 0.04 | 72 | 1010.6 |
| 20260507082536 | 56 | 255 | 5.0 | 9.0 | 0.01 | 0.04 | 0.04 | 68 | 1010.6 |
| 20260507081536 | 54 | 244 | 6.0 | 12.0 | 0.01 | 0.04 | 0.04 | 72 | 1010.6 |
| 20260507080536 | 54 | 236 | 5.0 | 9.0 | 0.01 | 0.04 | 0.04 | 73 | 1010.7 |
| 20260507074535 | 53 | 230 | 4.0 | 9.0 | 0.01 | 0.04 | 0.04 | 75 | 1010.6 |
| 20260507073535 | 54 | 234 | 4.0 | 10.0 | 0.01 | 0.04 | 0.04 | 75 | 1010.5 |
| 20260507070535 | 51 | 201 | 5.0 | 7.0 | 0.01 | 0.04 | 0.04 | 82 | 1010.5 |
| 20260507064536 | 49 | 210 | 4.0 | 7.0 | 0.01 | 0.04 | 0.04 | 85 | 1010.5 |
| 20260507062536 | 49 | 211 | 2.0 | 3.0 | 0.02 | 0.04 | 0.04 | 87 | 1010.5 |
| 20260507061536 | 48 | 239 | 3.0 | 7.0 | 0.02 | 0.04 | 0.04 | 85 | 1010.6 |